User: anonymous   Login
Location: Stillwell
(40.4602°N, 82.0928°W)
Time: 06:28:14
(UTC-04:00)
Language:

Cosmos 2333 Rocket - Orbit

View from above orbital plane
View from above orbital plane
View from above satellite
View from above satellite

Ground track
Ground track

The orbit data is extracted from the following two-line orbital elements,

1 24298U 96051B   15217.00631649 -.00000192  00000-0 -77770-4 0  9997
2 24298 070.8409 060.1884 0013815 122.9966 237.2484 14.12405675975494
Epoch (UTC): 05 August 2015 00:09:05
Eccentricity: 0.0013815
inclination: 70.8409°
perigee height: 841 km
apogee height: 861 km
right ascension of ascending node: 60.1884°
argument of perigee: 122.9966°
revolutions per day: 14.12405675
mean anomaly at epoch: 237.2484°
orbit number at epoch: 97549

The dashed part of the orbit path shows where the satellite is in the earth's shadow,  

DLR